Temp
80 83 85 83 83 83 79 80 75 81 82 87 91 91 93 96 99 98 98 98 97 100 100 96 95 92 93 94 93 94 90 88 86 86 85 84 84 84 84 84 82 80 79 79
76 82 82 80 84 85 84 83 83 84 82 94 97 98 95 90 95 95 96 99 98 96 97 97 95 92 92 93 93 92 89 88 87 86 85 84 84 84 83 83 82 80 79 78
67 78 79 72 80 83 84 86 84 77 84 93 91 91 93 91 96 95 97 97 98 97 95 94 98 94 91 92 93 91 89 88 87 86 84 84 84 83 82 82 80 79 78 78
69 72 58 79 89 89 85 87 89 88 89 91 91 93 95 95 94 92 99 99 100 103 100 98 102 101 95 95 91 89 88 88 88 86 85 84 83 82 81 82 80 77 77 77
64 66 72 78 84 84 81 80 90 88 90 93 95 95 91 98 98 97 97 99 100 105 105 99 98 97 93 92 91 90 88 88 88 87 84 83 82 81 81 80 78 77 76 75
67 62 59 76 87 92 87 72 89 87 87 89 89 80 87 95 99 99 101 102 101 102 104 104 97 101 92 91 89 88 88 88 88 87 85 83 82 81 81 79 77 79 76 75
66 64 70 78 86 89 67 71 83 85 86 86 82 86 88 93 93 100 99 99 101 101 99 95 96 96 89 89 87 89 90 89 87 86 84 84 82 80 79 77 76 75 74 72
66 62 58 85 82 70 78 82 84 85 86 85 87 89 91 92 94 96 95 100 99 97 98 95 93 89 87 85 87 87 87 86 85 84 85 83 79 77 77 75 73 73 71 71
69 69 72 80 77 81 85 82 83 84 88 88 88 89 93 91 92 94 94 94 98 96 89 91 91 87 85 84 85 86 84 83 83 82 82 79 77 74 72 73 72 69 69 69
67 75 77 80 80 84 85 84 86 87 87 89 88 89 88 89 89 91 91 89 89 87 84 84 86 86 84 84 85 84 82 80 79 76 75 74 73 72 70 70 70 71 71 70
71 74 73 78 80 82 83 82 79 78 78 77 79 79 82 83 82 84 85 86 84 82 82 82 82 83 84 83 82 79 77 77 76 75 74 68 61 63 72 63 63 70 73 72
57 60 66 72 79 81 78 78 80 78 76 76 72 68 69 76 80 81 80 81 79 77 77 78 79 78 80 81 79 77 75 74 73 73 73 70 67 62 47 48 46 46 51 66
56 56 56 70 74 79 77 78 78 78 79 77 77 74 71 67 71 70 75 80 80 78 78 79 79 79 80 80 80 77 77 75 74 73 75 75 74 71 64 55 47 45 45 51
58 57 55 62 64 71 73 76 75 79 78 78 78 79 78 76 76 77 79 80 81 80 79 80 78 77 80 81 78 81 79 67 78 78 77 77 77 76 75 69 67 63 48 51
57 62 63 66 67 67 70 70 69 72 73 73 75 75 75 75 75 76 79 82 82 80 80 79 75 75 81 82 76 77 80 78 78 78 79 78 79 79 79 76 73 65 61 55
62 65 67 67 67 68 67 61 58 58 66 68 71 71 74 75 75 75 77 74 75 77 77 75 76 78 79 78 79 80 76 69 75 78 75 80 80 80 81 76 72 70 69 66
57 56 60 61 64 64 65 67 65 61 59 61 70 73 73 72 72 71 73 74 72 74 75 76 76 75 79 81 79 79 77 77 67 77 77 79 80 80 80 77 75 73 73 69
64 64 65 65 65 65 66 68 68 69 66 68 69 70 70 69 64 64 66 66 68 69 70 70 72 76 78 79 76 78 80 81 80 82 78 78 79 81 80 79 77 71 74 65
67 66 68 68 68 67 69 70 69 70 69 68 69 68 71 71 71 70 70 69 69 65 68 73 67 71 76 69 69 74 77 75 68 72 73 67 71 81 70 69 73 72 73 67
65 66 67 67 69 68 67 68 68 69 70 69 68 67 68 69 71 70 67 65 66 68 74 73 75 75 76 75 71 81 79 73 72 74 72 73 76 76 76 68 72 75 72 72
71 71 69 66 64 66 67 68 69 66 67 69 68 66 66 69 67 71 71 71 71 71 74 69 71 69 76 75 75 78 78 73 68 69 73 77 73 74 77 76 76 73 67 67
68 69 71 68 65 65 67 67 68 67 66 66 67 68 68 64 68 66 68 70 74 60 72 74 74 64 69 65 79 80 81 79 78 78 76 75 76 76 70 70 71 72 73 68
68 67 68 68 67 69 69 69 72 71 69 69 69 68 66 65 65 65 66 71 73 67 72 67 63 61 60 75 81 80 80 80 80 75 75 72 69 75 75 70 72 71 73 72
63 66 68 69 71 71 68 70 71 72 71 71 72 73 68 65 67 73 73 66 62 66 72 70 67 62 56 76 79 80 80 80 80 80 80 64 78 77 77 77 74 76 77 73
62 63 66 65 67 66 70 71 72 70 71 71 73 74 75 77 73 74 75 74 60 67 74 60 58 59 72 77 78 79 77 80 80 80 78 77 77 77 77 77 77 77 77 77
66 66 69 68 71 73 72 71 71 71 71 69 71 72 75 73 71 76 68 70 76 70 77 71 70 73 75 74 75 74 76 74 74 77 77 78 78 77 77 77 76 77 77 77
70 62 71 70 72 72 73 71 71 69 71 72 71 74 74 74 73 72 67 72 72 73 73 70 68 66 70 73 72 76 72 69 60 71 74 74 75 76 76 77 77 77 77 77
MSLP
986.52 986.53 986.23 985.87 986.16 986.92 987.17 987.07 987.07 986.62 986.59 986.89 986.63 987.50 987.88 988.29 988.69 988.89 989.23 989.68 990.47 991.13 991.93 992.87 993.95 995.18 996.33 997.38 998.70 999.91 1001.22 1002.19 1002.83 1003.67 1004.44 1005.32 1006.02 1006.60 1007.25 1007.75 1008.40 1009.04 1009.72 1010.37
986.13 986.27 986.08 985.56 985.47 985.55 985.81 986.37 986.42 986.66 986.29 986.49 986.61 986.73 987.26 988.20 988.99 988.81 989.14 989.43 990.24 990.95 991.61 992.46 993.36 994.26 995.27 996.39 997.42 998.69 999.97 1000.81 1001.88 1002.85 1003.64 1004.30 1005.13 1005.81 1006.52 1007.06 1007.73 1008.44 1009.14 1009.72
986.33 986.33 985.98 985.34 984.51 984.74 985.19 985.78 986.20 986.33 986.03 986.57 986.53 986.78 987.31 987.46 987.81 988.25 988.29 988.71 989.40 990.19 991.04 991.85 992.35 993.37 994.57 995.50 996.58 997.74 998.82 999.87 1000.83 1001.65 1002.54 1003.51 1004.39 1005.16 1005.75 1006.40 1007.24 1007.92 1008.78 1009.47
987.08 986.95 985.69 984.22 984.78 985.02 984.83 985.07 985.41 985.78 986.18 986.48 986.59 986.85 987.16 987.61 988.02 988.11 987.55 988.10 988.57 989.17 990.19 991.16 991.74 992.55 993.79 994.98 995.97 996.87 997.93 998.92 999.85 1000.75 1001.71 1002.76 1003.70 1004.45 1005.19 1005.82 1006.59 1007.70 1008.50 1009.25
987.17 986.68 986.01 985.35 984.87 984.80 985.19 985.22 985.41 985.59 985.91 986.12 986.48 986.79 986.56 986.95 987.20 987.66 988.21 988.14 988.06 988.55 989.09 990.31 991.09 991.79 993.05 994.32 995.29 996.21 996.97 997.89 998.84 999.93 1001.15 1002.28 1003.14 1003.93 1004.75 1005.63 1006.53 1007.34 1008.15 1008.89
987.45 986.53 985.39 985.25 985.28 985.20 985.87 986.15 986.29 986.38 986.44 986.45 986.78 986.96 986.70 986.59 986.51 986.98 987.44 987.67 987.77 988.11 988.52 989.28 990.31 991.31 992.46 993.67 994.74 995.54 996.27 997.20 998.32 999.50 1000.70 1001.83 1002.83 1003.84 1004.65 1005.54 1006.43 1007.02 1007.74 1008.48
987.25 986.85 986.49 985.85 985.57 986.22 987.02 987.39 987.63 987.78 987.74 987.60 987.75 987.73 987.71 987.51 987.35 986.41 986.85 987.00 987.37 987.79 988.14 988.88 989.58 990.72 992.00 993.33 994.23 995.27 996.45 997.35 998.27 999.37 1000.53 1001.70 1002.80 1003.65 1004.45 1005.43 1006.28 1007.01 1007.69 1008.41
987.65 987.58 987.16 986.21 986.92 987.61 988.03 988.15 988.19 988.34 988.30 988.19 988.03 987.82 987.81 987.75 987.25 987.15 987.02 986.54 987.22 987.65 988.38 989.13 989.86 990.74 992.02 993.23 994.31 995.47 996.59 997.52 998.53 999.64 1000.66 1001.77 1002.79 1003.90 1004.55 1005.54 1006.52 1007.17 1007.69 1008.31
988.30 987.94 987.95 989.44 988.02 988.39 988.72 989.22 989.04 988.90 988.62 988.53 988.52 988.17 987.54 987.40 987.50 987.75 988.03 987.97 987.96 988.36 989.25 990.20 990.79 991.54 992.68 993.79 994.78 995.82 996.82 997.82 998.99 1000.07 1001.11 1002.19 1003.18 1003.75 1004.98 1005.88 1006.79 1007.30 1007.71 1008.13
989.81 989.12 988.54 988.54 989.01 989.13 989.86 989.72 989.61 989.41 989.27 988.91 988.83 988.84 988.76 988.73 988.77 988.97 989.11 989.08 989.83 989.99 990.67 991.86 992.28 992.86 993.66 994.52 995.53 996.61 997.47 998.31 999.52 1000.73 1001.89 1002.96 1003.88 1005.16 1005.45 1006.21 1006.92 1007.22 1007.41 1007.69
990.77 990.63 991.05 990.62 990.33 990.49 990.08 990.56 991.26 991.44 991.53 991.50 991.40 991.64 991.23 991.17 990.88 990.55 990.68 990.80 991.52 992.05 992.47 993.39 993.86 994.30 994.97 995.31 996.38 997.49 999.19 999.50 1000.29 1001.50 1002.49 1003.87 1005.18 1005.99 1006.00 1006.80 1007.06 1007.10 1007.06 1007.47
993.95 993.69 993.30 991.69 991.34 991.34 991.48 991.47 991.87 992.33 992.85 993.64 993.85 994.11 994.21 993.51 992.89 992.62 992.19 992.54 993.17 993.40 994.28 995.26 995.58 995.92 996.28 996.74 997.61 998.32 999.63 1000.33 1001.21 1002.06 1003.01 1004.35 1005.35 1006.47 1007.22 1007.56 1007.36 1007.01 1007.19 1007.31
996.14 995.48 996.35 992.20 992.46 992.08 992.88 992.88 993.23 993.46 994.49 994.87 995.38 995.22 995.29 995.10 994.56 994.44 994.43 994.24 994.33 994.91 995.63 996.28 996.79 997.15 997.54 998.04 998.53 998.79 999.51 1000.55 1001.44 1002.36 1002.90 1003.76 1004.29 1005.30 1006.92 1008.16 1007.77 1007.93 1007.98 1008.19
996.47 995.75 997.76 997.07 995.09 995.07 994.68 994.68 995.15 995.77 996.23 996.58 996.52 996.42 996.41 996.32 996.26 995.75 995.58 995.75 995.88 996.41 997.08 997.41 997.67 997.97 998.40 998.97 999.27 999.10 999.82 1000.34 1000.74 1001.67 1001.52 1003.44 1003.95 1004.15 1005.12 1006.25 1007.49 1008.78 1009.13 1009.15
998.27 998.10 998.14 997.73 996.87 997.56 997.03 997.40 997.32 997.81 998.00 998.20 998.21 997.87 997.47 997.39 997.58 997.37 996.91 996.62 996.86 997.22 997.57 998.05 998.53 998.73 998.47 999.49 1000.12 998.96 1000.21 1000.55 1000.77 1000.80 1001.23 1001.48 1003.56 1003.53 1003.97 1004.76 1005.95 1007.92 1008.98 1009.64
998.94 998.48 998.11 997.52 997.98 998.33 998.38 998.30 998.96 999.60 999.14 999.07 998.91 999.04 998.92 998.54 998.63 998.47 998.16 997.80 997.59 997.92 998.29 998.68 999.25 998.89 999.30 1000.54 1000.25 1000.12 1000.48 1000.57 1000.59 1001.44 1001.45 1002.20 1002.94 1003.01 1003.22 1004.13 1005.50 1006.67 1007.46 1008.38
999.60 999.72 999.29 998.95 999.10 999.12 999.34 999.36 999.49 1000.35 1000.41 1000.00 999.71 999.58 999.60 999.71 999.31 999.43 999.29 999.10 999.06 999.30 999.59 999.64 999.68 999.99 1000.63 1000.77 1000.20 1000.57 1001.01 1001.04 1000.84 1001.25 1001.93 1002.47 1002.69 1002.74 1002.90 1003.87 1004.74 1005.65 1006.30 1007.33
999.73 999.64 999.30 999.33 999.54 999.68 999.76 999.89 1000.14 1000.23 1000.18 1000.49 1000.75 1000.44 1000.22 1000.01 1000.19 1000.35 1000.30 1000.59 1000.46 1000.76 1000.81 1000.84 1000.70 1000.68 1000.58 1000.77 1000.85 1001.00 1000.74 1001.05 1000.93 1000.93 1001.35 1001.94 1002.25 1002.45 1002.81 1003.42 1004.07 1004.84 1005.73 1006.80
999.97 999.88 999.94 1000.04 1000.24 1000.55 1000.01 999.93 1000.08 1000.19 1000.71 1000.64 1000.36 1000.59 1000.39 1000.29 1000.14 1000.64 1000.58 1000.77 1000.46 1000.95 1001.30 1001.13 1000.92 1000.87 1000.66 1001.16 1001.55 1001.01 1000.28 1000.97 1001.71 1001.92 1001.93 1002.20 1002.78 1002.50 1003.40 1004.12 1004.50 1005.09 1005.57 1006.50
1000.05 1000.08 1000.41 1000.54 1000.70 1000.54 1000.76 1000.68 1000.85 1000.99 1000.96 1001.06 1001.07 1000.81 1000.62 1000.71 1000.77 1000.96 1001.30 1001.31 1001.33 1001.40 1001.37 1001.16 1001.25 1001.40 1001.32 1001.50 1001.35 1001.18 1001.39 1001.58 1002.28 1002.52 1002.76 1002.60 1002.77 1002.86 1003.38 1003.72 1004.75 1005.07 1005.56 1006.05
1000.22 1000.31 1000.44 1000.85 1001.01 1001.06 1001.23 1001.35 1001.54 1001.51 1001.71 1001.62 1001.44 1001.45 1001.38 1001.35 1001.29 1001.50 1001.21 1001.20 1001.77 1001.84 1001.82 1001.89 1001.91 1001.51 1001.21 1001.33 1001.44 1001.30 1001.60 1002.06 1002.46 1002.64 1002.61 1002.70 1003.18 1003.32 1003.18 1003.48 1004.34 1004.79 1005.10 1005.74
1000.99 1000.84 1000.81 1001.05 1001.35 1001.61 1001.73 1001.77 1001.85 1002.05 1002.13 1002.01 1001.89 1001.80 1001.65 1001.82 1002.04 1002.10 1001.95 1001.97 1002.12 1002.32 1002.21 1002.08 1001.96 1002.19 1002.13 1001.95 1001.15 1000.93 1001.01 1001.44 1002.16 1002.56 1002.85 1002.61 1002.97 1003.11 1003.50 1003.87 1004.08 1004.45 1004.69 1004.98
1001.74 1001.69 1001.58 1001.80 1002.09 1002.13 1001.99 1002.04 1002.30 1002.39 1002.38 1002.43 1002.35 1002.29 1002.05 1002.41 1002.61 1002.67 1002.59 1002.68 1002.73 1002.73 1002.88 1002.91 1002.93 1002.70 1002.63 1001.89 1001.36 1001.34 1001.46 1001.56 1001.78 1002.20 1002.37 1002.76 1003.16 1003.10 1003.06 1003.42 1003.63 1003.91 1004.17 1004.60
1002.82 1002.51 1002.28 1002.47 1002.49 1002.26 1002.48 1002.81 1002.64 1002.47 1002.62 1002.61 1002.54 1002.46 1002.62 1002.81 1002.99 1003.03 1003.11 1003.12 1003.15 1002.98 1003.22 1003.33 1003.26 1003.29 1003.46 1002.63 1001.95 1001.71 1001.83 1002.09 1001.94 1002.06 1002.13 1002.50 1002.60 1003.02 1003.09 1003.02 1003.43 1003.39 1003.29 1003.43
1003.48 1003.19 1002.97 1003.00 1003.00 1003.04 1002.82 1002.96 1002.89 1002.84 1002.75 1002.78 1002.76 1002.64 1002.35 1002.67 1002.91 1003.05 1003.07 1003.12 1003.07 1003.16 1003.22 1003.34 1003.42 1003.48 1003.43 1002.56 1002.35 1001.95 1001.78 1001.75 1001.83 1002.05 1002.20 1002.32 1002.61 1002.70 1002.93 1003.04 1003.13 1003.13 1002.98 1002.84
1003.94 1003.82 1003.75 1003.78 1003.29 1003.28 1003.32 1003.05 1003.11 1003.32 1003.13 1003.17 1003.31 1003.22 1002.97 1003.14 1003.26 1003.00 1003.20 1003.02 1002.86 1002.92 1002.76 1002.65 1003.26 1003.40 1003.17 1002.86 1002.77 1002.20 1002.07 1001.94 1002.23 1002.23 1002.03 1001.96 1002.13 1002.55 1002.75 1002.95 1003.18 1003.02 1002.93 1003.07
1004.33 1004.29 1004.14 1004.11 1004.10 1003.94 1004.10 1003.94 1003.69 1003.89 1003.71 1003.80 1003.83 1003.71 1003.53 1003.61 1003.52 1003.48 1003.45 1003.31 1003.42 1003.38 1003.27 1003.42 1003.32 1003.59 1003.48 1003.04 1003.08 1002.51 1002.65 1002.95 1003.20 1002.83 1002.37 1002.18 1002.21 1002.19 1002.18 1002.38 1002.59 1002.82 1002.92 1002.95
Wind_Speed
28 30 26 26 29 28 27 25 23 21 21 22 23 12 16 8 5 6 6 9 8 6 4 17 19 20 20 21 21 21 20 21 21 19 18 16 16 16 16 15 15 14 15 14
25 28 29 27 27 28 30 29 28 24 24 18 16 17 13 19 19 12 11 8 11 12 9 6 15 20 21 19 21 18 20 21 19 18 17 18 16 15 15 15 15 14 15 14
19 24 24 27 27 24 23 25 22 21 22 15 15 15 12 7 8 13 16 12 12 13 12 10 9 17 20 20 17 19 17 18 18 18 18 18 16 15 15 15 14 14 14 12
16 17 24 15 20 25 22 18 24 23 18 17 18 17 17 13 12 9 9 12 8 8 12 12 12 17 15 18 17 17 16 17 17 17 17 16 16 15 14 12 13 11 10 10
14 17 16 21 20 17 17 22 19 18 15 17 18 19 20 18 16 13 15 11 10 11 14 13 14 13 15 16 18 16 17 14 16 16 16 16 15 15 12 10 10 9 9 11
16 20 25 16 20 9 4 8 7 8 7 8 10 7 8 16 16 15 15 11 9 12 12 13 15 17 17 16 16 18 16 16 13 13 15 15 13 11 9 8 8 8 9 9
14 14 18 1 13 8 11 6 5 6 6 7 9 9 13 17 19 13 12 14 11 3 4 11 15 16 17 16 16 14 12 13 12 13 13 12 11 9 10 8 7 7 7 6
12 15 13 16 10 5 2 4 4 4 5 8 10 13 12 14 14 5 8 7 5 4 1 9 12 13 16 15 12 12 12 13 12 12 10 9 10 7 9 7 6 6 5 4
8 7 13 1 11 9 6 4 3 2 6 6 11 16 14 4 6 3 4 7 4 5 10 7 7 11 13 10 12 12 13 13 12 11 8 10 9 10 8 7 6 5 5 5
9 2 11 14 11 10 7 7 12 13 12 11 5 7 12 8 3 5 7 11 10 12 14 10 9 10 11 12 11 12 13 14 13 12 11 11 9 6 6 6 5 5 6 5
16 13 13 10 10 9 13 17 16 19 19 21 21 20 15 11 12 10 10 12 12 12 11 11 12 12 11 13 14 14 11 12 12 10 10 10 8 3 6 5 1 4 4 5
2 10 10 15 16 20 20 22 19 18 18 18 18 13 13 13 13 11 13 13 11 12 12 10 11 11 11 11 14 13 12 9 8 8 9 9 7 7 17 10 7 11 5 3
4 15 19 17 21 24 21 21 21 21 18 17 16 10 11 6 9 10 14 12 12 13 11 10 10 10 9 10 12 14 12 13 9 8 7 9 10 8 8 7 13 14 11 9
15 21 9 10 17 17 20 20 20 18 16 16 13 12 12 9 10 11 10 9 11 12 11 10 11 10 9 7 6 9 13 12 10 10 10 7 8 9 9 9 8 6 10 8
14 12 12 10 15 15 17 17 20 17 14 12 11 11 11 11 9 7 8 8 11 10 9 11 7 6 8 8 3 10 8 4 3 4 6 10 6 6 8 10 9 9 7 5
14 15 15 17 19 17 17 16 14 12 15 14 10 10 9 7 9 9 9 8 5 7 10 11 6 9 8 4 4 5 4 8 6 5 4 5 5 5 3 8 11 9 8 8
15 12 12 15 15 15 14 14 14 7 5 12 10 8 4 6 8 9 9 12 12 9 8 8 9 8 5 4 2 6 2 2 6 8 5 6 5 5 5 9 9 9 8 11
12 14 14 13 10 10 10 10 9 9 9 1 3 6 7 3 6 3 5 5 7 8 6 5 5 3 3 0 5 3 6 6 4 5 6 5 5 4 2 7 9 7 7 10
12 13 13 12 11 8 8 9 8 9 8 12 6 6 2 4 7 4 6 5 7 7 3 2 5 4 4 6 5 7 3 6 6 5 6 7 3 3 6 7 7 7 8 9
5 7 9 8 8 7 6 7 9 8 8 8 9 11 6 6 4 6 7 7 4 3 3 6 4 4 2 2 3 4 10 9 6 7 0 2 4 5 5 7 8 7 9 8
15 14 11 16 13 10 9 9 10 10 9 8 6 4 5 4 7 6 4 7 6 7 5 4 7 4 2 6 4 2 9 7 3 1 5 4 4 2 4 6 3 6 4 4
10 10 13 13 9 6 5 5 6 6 5 7 7 6 6 7 5 8 6 7 8 6 7 7 8 11 8 11 8 3 5 7 6 6 4 2 2 4 4 5 5 5 6 5
8 7 9 9 9 8 8 7 8 6 7 6 6 8 4 3 4 5 5 9 7 9 7 5 8 12 13 8 5 4 4 4 3 4 4 2 2 4 2 6 5 4 6 7
8 9 6 8 6 4 6 2 4 4 5 3 3 3 4 4 3 5 3 4 5 7 6 2 3 5 8 6 7 2 1 3 3 3 1 2 1 3 4 4 4 9 9 8
5 5 6 6 2 4 3 3 1 5 4 4 4 5 3 3 6 4 5 2 1 4 4 6 2 4 6 5 6 8 4 5 3 2 3 3 4 6 5 5 5 6 6 6
8 7 7 8 8 8 8 4 7 7 6 5 8 9 9 8 4 6 1 4 5 6 6 6 4 6 7 6 9 7 8 2 1 4 6 5 5 4 5 3 6 5 4 4
7 11 8 8 10 11 10 8 7 6 6 8 8 7 6 8 4 5 6 6 5 7 6 1 0 2 5 4 10 9 4 6 10 10 9 7 6 5 3 4 5 5 5 5
Wind_Direction
220 248 228 237 215 216 224 242 241 236 240 223 253 227 193 227 204 233 232 159 147 185 211 183 181 185 187 184 185 188 191 196 200 201 202 199 201 201 203 195 199 196 197 199
232 222 241 241 227 220 220 226 246 253 252 249 243 252 245 179 229 207 210 216 176 176 196 219 185 182 186 187 185 186 190 196 196 195 196 199 199 200 201 200 199 194 201 197
238 232 236 238 239 237 218 220 231 241 251 265 258 262 278 244 234 220 203 201 221 175 188 203 200 178 183 190 180 188 187 193 193 191 193 193 192 196 196 203 190 200 200 200
237 230 236 240 228 238 253 240 218 222 234 251 264 270 271 268 281 283 233 214 206 235 183 191 208 176 173 183 191 184 191 188 189 189 187 184 190 194 198 194 197 197 195 198
230 229 241 246 238 231 236 245 253 262 256 236 225 239 255 258 256 250 247 268 223 228 257 184 192 178 174 179 190 192 185 186 185 179 175 179 188 192 190 197 192 187 191 195
214 228 226 218 227 186 161 246 328 1 343 326 344 299 282 234 251 252 253 253 228 221 237 223 183 178 170 182 186 195 189 184 170 163 170 179 181 178 176 167 186 197 192 186
220 226 238 314 153 130 212 174 75 20 348 327 293 285 316 313 312 238 262 235 254 215 242 181 174 172 168 178 184 185 175 172 160 164 168 166 165 167 165 168 184 191 173 163
224 210 224 162 152 204 46 109 73 26 333 319 301 292 280 276 275 306 327 263 167 172 63 146 164 151 162 171 158 158 157 161 155 153 158 153 151 138 148 151 143 149 142 169
251 246 110 90 72 68 130 115 73 354 310 309 291 278 260 65 54 89 15 19 349 127 100 95 94 136 146 144 141 148 147 146 143 136 126 126 141 131 127 132 154 155 172 189
246 214 116 126 125 127 118 128 47 40 32 15 254 58 59 52 127 92 77 73 63 83 82 84 90 104 115 126 133 139 134 122 112 105 104 102 109 125 126 143 156 181 194 197
230 147 110 125 119 127 111 89 77 64 46 50 46 37 44 53 54 66 75 71 67 69 77 78 83 94 99 111 108 104 102 104 106 112 108 89 64 37 133 63 146 209 184 175
13 356 311 140 134 100 83 72 81 84 75 66 55 51 20 33 44 50 68 72 79 78 83 93 93 104 104 104 112 116 116 108 110 119 126 121 119 93 44 50 58 50 27 111
79 66 355 79 80 79 75 83 68 60 62 81 86 82 75 351 31 45 53 72 77 87 89 101 112 113 119 121 130 139 137 125 137 146 146 153 149 134 124 58 61 54 53 82
87 86 36 7 67 67 71 62 72 67 69 47 50 62 85 57 51 38 60 95 91 92 109 115 104 97 106 121 153 141 134 145 153 164 147 175 167 157 152 150 143 111 44 81
162 151 137 106 87 77 68 70 66 53 51 38 27 33 52 59 56 43 37 60 97 114 115 101 99 123 110 93 109 102 123 131 130 136 140 129 172 180 162 151 134 128 132 106
78 69 84 81 96 87 77 59 59 34 21 358 42 21 18 46 59 39 33 13 94 81 99 100 106 76 81 143 136 106 85 127 149 116 103 124 147 193 189 131 135 149 159 154
107 99 93 88 81 76 72 80 78 98 58 353 352 16 46 26 58 49 39 39 37 55 78 93 85 66 100 183 179 128 131 79 57 124 163 157 171 222 161 150 161 171 162 154
99 114 102 97 98 83 75 63 52 56 40 355 359 20 19 121 120 75 91 43 45 47 36 46 42 50 129 323 332 315 160 178 198 205 145 141 161 190 149 178 178 164 152 153
108 106 106 96 92 81 74 81 62 47 37 355 73 138 202 31 74 107 146 160 144 150 212 196 36 18 97 41 15 317 108 113 51 39 89 93 278 159 77 99 115 133 155 148
113 83 71 91 93 82 78 45 47 39 43 37 20 15 31 55 59 103 96 81 103 114 78 80 64 115 199 166 342 333 99 84 88 112 94 37 113 105 97 102 145 149 153 169
59 76 76 82 75 75 67 68 69 44 27 19 21 48 355 36 62 46 56 84 75 26 73 123 88 329 77 7 318 230 102 98 61 118 181 200 108 250 205 162 143 149 149 166
59 59 64 69 87 96 107 99 74 68 53 19 4 10 14 43 58 74 51 21 79 13 47 45 60 39 22 354 303 132 149 141 177 186 210 235 232 205 139 152 177 168 172 163
56 52 71 70 58 49 40 58 69 54 55 31 24 360 19 95 48 65 45 30 53 72 63 40 27 30 8 337 338 35 9 3 337 161 194 179 230 262 248 189 204 183 183 184
25 23 31 80 115 75 73 80 94 95 117 70 57 27 81 86 75 82 88 93 109 43 91 80 59 2 337 308 304 230 253 283 266 233 219 55 318 273 290 305 224 210 227 194
17 10 13 15 76 14 127 119 353 164 145 144 193 227 138 51 119 173 124 112 169 269 179 203 154 296 298 277 287 296 281 245 214 154 72 16 331 315 277 277 274 270 288 314
31 49 59 15 25 55 356 42 70 22 26 48 46 12 349 64 6 17 102 245 330 230 276 163 190 223 260 304 320 3 341 159 209 233 224 202 215 250 295 280 294 286 249 263
53 28 34 38 23 11 14 9 357 17 20 14 354 345 354 15 24 358 344 357 16 351 6 297 178 218 323 331 14 349 357 53 40 17 357 339 352 333 261 236 213 223 263 265